sat.trackr.live / text

‹ back to catalog

STARLINK-36506

NORAD 67414 · 2026-005L

PAYLOAD ACTIVE UNKNOWN

§ Identity

Operator
Country
US
Launch date
2026-01-12
Launch site
AFETR
Launch vehicle
Mass (kg)
RCS (m²)

Purposes: comms

External: N2YO · Heavens-Above · Gunter

§ Orbital elements

Epoch: 2026-09-19T22:04:42.701088Z

Period
94.27 min
Inclination
42.9943°
Eccentricity
0.0000490
Mean motion
15.27595639 rev/d
Perigee alt
482.7 km
Apogee alt
483.3 km
Semi-major
6,861.1 km
B*
3.5207e-4
RAAN
220.8798°
Arg perigee
121.9030°
Mean anomaly
238.1869°
Rev number
3,840

§ Raw data

STARLINK-365061 67414U 26005L   26262.91993867  .00009443  00000+0  35207-3 0  99942 67414  42.9943 220.8798 0000490 121.9030 238.1869 15.27595639 38404

JSON: /api/v1/satellites/67414 · /tle

For live sub-satellite position, see the globe view (requires WebGL).

§ Visibility from observer

Set your observer location to see the next 7 days of passes ≥ 10°. The values pass through the URL so the page stays shareable.

No JS? Fill the form by hand. The geolocation button needs JavaScript.